GFSNGP_500_rhum_114.txt.gz
RH
100 100 99 82 100 96 70 47 69 39 33 32 18 74 89 76 56 23 96 97 100 94 90 97 99 97 96 98 96 44 48 42 47 30 31 36 36 24 15 16 25 40 32 33
74 100 99 94 83 72 40 34 46 32 20 16 22 49 79 78 67 31 99 99 99 98 94 100 87 97 97 96 95 52 49 52 53 35 31 35 36 35 20 15 16 23 48 50
77 78 78 84 60 39 22 25 25 11 8 7 13 38 70 74 98 61 99 100 98 99 93 97 98 96 97 97 96 85 56 61 55 43 37 38 42 43 27 21 15 13 17 23
25 35 41 45 42 39 23 11 8 5 4 4 4 14 31 53 87 100 100 99 99 100 92 85 98 96 97 94 97 95 75 67 61 45 39 37 44 62 39 28 26 21 16 14
12 11 11 12 14 10 8 6 7 5 4 3 3 3 8 26 54 99 99 99 97 97 93 93 99 99 98 89 96 99 96 88 68 63 53 44 56 70 50 35 35 38 38 28
98 82 76 55 12 8 6 24 59 62 58 32 6 4 12 37 73 100 100 99 97 94 99 99 96 98 96 97 100 98 98 96 91 79 55 51 68 81 59 39 39 47 54 55
100 91 96 34 8 11 26 75 100 98 96 76 93 90 61 68 66 98 100 100 99 100 100 98 98 99 100 93 97 98 98 99 97 97 96 93 70 75 76 52 46 46 53 59
99 79 71 42 40 47 76 99 100 100 100 96 92 97 86 80 79 98 98 100 100 100 99 99 99 99 96 96 97 99 99 93 98 98 99 97 95 92 66 48 50 58 60 55
92 81 54 87 80 85 100 100 100 95 96 100 100 85 78 85 93 91 72 76 95 94 93 96 98 100 95 96 98 100 97 97 94 96 91 85 98 97 95 81 72 64 64 86
63 92 100 92 86 100 100 100 100 100 79 94 96 99 85 98 76 89 71 62 75 52 56 67 95 95 95 96 98 97 97 99 93 97 95 98 99 99 98 97 99 100 97 98
100 80 86 93 78 81 95 100 100 99 89 84 74 72 66 66 57 49 47 62 43 17 40 37 48 77 93 97 95 90 68 70 82 96 92 92 97 98 97 98 97 98 96 98
97 100 92 97 95 77 86 96 95 95 100 98 79 64 60 47 48 55 48 54 26 16 11 27 34 36 49 60 83 72 50 40 46 46 50 62 77 98 98 87 68 92 99 98
100 100 100 100 100 100 100 100 95 99 100 100 99 84 59 40 27 23 42 28 27 14 13 14 24 23 28 38 40 47 42 31 21 18 23 20 16 14 12 60 89 73 64 29
95 92 84 86 84 95 83 98 100 100 100 100 100 100 100 100 86 39 19 11 13 20 10 7 12 18 20 26 27 20 20 22 28 39 32 21 18 24 29 30 28 25 66 78
63 71 72 78 82 84 89 100 100 100 100 99 82 96 100 100 100 76 52 52 31 18 11 8 6 7 9 10 13 19 19 14 13 22 27 28 29 31 27 25 26 26 41 96
56 69 82 87 86 90 97 100 99 100 91 87 71 61 65 100 100 95 74 70 73 48 41 29 16 14 26 42 46 29 22 21 22 28 29 27 28 30 36 51 74 70 69 80
66 76 91 99 100 100 100 98 100 100 94 82 75 64 55 42 39 63 70 68 66 86 74 59 76 62 55 62 62 70 73 46 40 43 78 71 74 66 92 100 100 86 100 100
74 77 76 76 84 93 98 100 94 93 92 82 73 64 61 52 35 31 48 97 100 100 94 91 78 72 88 100 97 91 96 87 79 84 100 100 100 100 100 100 100 100 100 100
45 44 42 42 40 38 38 53 54 59 69 67 63 60 58 54 50 40 29 29 32 67 88 84 100 100 100 100 100 100 100 100 99 100 100 100 100 100 100 100 100 100 100 100
47 48 48 43 38 35 31 28 25 25 28 35 50 55 52 53 51 46 44 38 35 32 30 44 74 100 100 100 100 100 100 100 100 100 100 100 100 100 100 100 100 100 100 100
21 20 20 20 19 18 20 24 23 22 22 21 21 22 32 45 50 50 49 46 46 41 38 34 28 23 33 74 99 100 100 100 100 100 100 100 100 100 100 100 100 99 99 100
42 50 55 53 44 30 28 29 32 31 25 23 20 18 17 16 21 34 47 52 52 53 47 44 42 39 36 27 22 29 66 93 98 99 100 100 100 100 100 100 100 100 100 100
60 72 77 78 75 66 70 74 79 78 64 48 41 34 28 24 18 13 16 28 45 55 59 57 56 55 48 42 37 33 32 39 53 88 100 100 100 100 99 100 100 99 99 99
46 55 66 63 60 66 74 83 84 77 68 62 62 59 51 44 44 36 21 17 16 29 59 73 70 67 60 52 48 45 51 68 74 74 83 91 96 95 91 89 89 94 96 99
56 49 46 44 39 38 37 44 48 56 72 76 68 62 66 67 67 68 58 34 33 48 67 89 95 86 75 67 58 53 48 42 42 51 55 53 62 88 99 100 100 100 100 100
57 58 54 43 36 33 31 32 33 33 47 79 84 76 78 79 77 83 85 72 72 88 100 100 100 100 98 88 80 73 68 62 58 53 48 48 62 84 97 100 100 100 100 100
88 93 99 100 95 85 75 49 30 30 38 70 90 83 87 89 89 88 86 95 100 100 100 100 100 100 100 100 95 88 86 85 82 77 78 80 89 99 100 100 100 100 100 99

GFSNGP_500_rhum_117.txt.gz
RH
97 99 100 100 87 84 81 90 85 62 54 46 54 37 26 24 22 13 15 34 20 34 87 48 53 88 94 96 88 91 95 96 77 30 30 38 32 34 29 14 12 21 34 29
72 100 94 100 100 100 100 100 82 72 61 63 59 54 42 20 12 10 10 41 29 73 100 99 74 92 97 100 99 100 97 98 70 35 33 36 32 30 36 24 14 12 17 34
24 76 100 82 76 92 92 86 64 66 47 40 33 34 24 14 12 16 59 59 36 87 100 97 89 89 98 98 98 96 95 98 78 38 34 37 33 31 39 35 17 13 13 17
18 17 21 56 66 63 57 45 40 40 36 29 24 9 6 9 9 18 76 50 96 94 99 100 95 90 100 97 96 97 95 100 70 41 40 40 33 34 36 38 31 16 13 12
23 19 14 11 15 23 28 28 27 26 8 6 5 5 4 12 10 36 70 72 99 98 98 100 88 100 97 98 88 94 96 97 84 44 45 46 38 36 33 32 36 28 20 14
100 98 89 100 91 57 8 7 8 6 12 18 45 13 6 17 8 32 40 40 98 99 98 98 97 100 95 96 84 98 100 94 96 80 51 49 43 40 33 31 31 35 30 25
100 99 83 100 62 32 8 6 8 77 100 87 93 85 37 27 58 27 24 65 100 100 100 94 100 91 94 96 98 91 93 99 88 88 94 73 50 43 35 33 34 45 37 31
100 100 91 53 97 21 37 42 100 100 100 99 100 100 99 58 75 70 51 86 98 100 99 99 100 94 87 86 94 97 99 99 79 92 97 96 95 92 81 70 61 53 50 38
92 99 79 51 89 78 82 100 100 93 100 94 99 99 100 100 100 87 96 94 100 100 99 100 99 100 100 98 97 97 95 97 97 93 100 100 99 91 100 98 88 85 70 53
100 99 100 97 100 89 100 100 100 100 99 72 70 80 100 97 88 99 96 92 78 80 99 84 97 99 100 93 97 97 99 98 97 98 97 89 100 99 94 99 96 97 92 80
100 100 98 79 79 96 90 95 96 90 95 86 75 76 70 95 100 100 92 100 83 51 68 63 82 95 97 98 100 99 100 98 98 98 95 98 99 99 99 98 97 98 98 94
100 100 100 87 100 100 100 96 94 76 69 71 74 74 65 64 82 87 82 76 56 55 41 24 60 52 71 90 97 98 98 96 98 98 97 98 99 98 97 97 97 97 99 98
99 100 100 100 100 96 79 76 82 92 97 100 84 95 77 70 60 50 48 46 35 39 44 20 14 24 39 36 50 93 96 96 97 96 78 98 75 58 46 49 70 98 99 99
100 96 98 88 93 93 92 83 100 100 98 100 90 94 90 87 65 49 36 32 32 35 28 34 23 12 11 26 29 34 57 70 79 80 81 83 35 23 25 42 81 41 48 50
73 76 66 68 66 71 80 89 92 98 94 92 100 90 91 99 100 100 82 43 24 21 22 20 28 16 10 10 16 22 31 37 32 25 25 25 29 35 35 29 28 30 33 31
64 65 70 78 84 80 80 87 91 98 100 100 100 92 74 82 98 91 88 64 37 41 39 20 20 15 6 6 6 7 7 12 20 18 16 16 14 16 22 26 29 27 30 39
83 87 86 88 96 98 99 100 100 100 100 100 100 100 85 73 52 49 68 85 75 75 63 68 44 18 14 9 18 52 47 40 31 26 21 23 34 39 40 36 49 65 73 95
55 55 61 67 62 59 70 86 90 99 83 88 97 94 81 72 69 51 40 96 97 89 94 84 77 76 77 62 65 80 77 81 90 83 62 54 63 76 95 100 100 100 100 100
69 65 62 60 54 46 40 36 34 41 67 38 52 60 64 65 65 63 58 42 38 68 97 97 94 91 85 86 87 94 96 100 100 100 100 100 97 100 100 100 100 100 100 100
28 24 22 22 20 20 21 19 20 22 24 25 24 26 34 44 53 56 55 53 53 45 32 51 49 88 100 100 100 100 100 100 100 100 100 100 100 100 100 100 100 100 100 100
22 20 21 23 29 37 38 33 24 18 17 17 18 20 20 21 23 30 42 51 54 55 53 44 32 28 43 82 99 100 100 100 100 100 100 100 100 100 100 100 100 100 100 100
32 32 41 49 60 64 65 66 53 44 45 42 35 28 27 23 20 17 17 21 30 45 56 57 58 48 37 33 32 29 35 72 97 100 100 100 100 100 100 100 100 100 100 100
54 49 42 45 45 61 72 70 71 80 95 93 85 72 59 46 40 32 25 19 16 16 22 46 61 65 61 50 45 40 39 35 33 66 99 100 100 100 100 100 100 100 100 100
40 41 44 47 42 41 52 53 56 55 67 76 81 79 70 57 53 51 52 48 41 30 21 20 32 63 71 70 68 62 54 48 44 47 48 52 59 74 87 94 99 96 100 100
42 46 51 58 61 56 46 39 40 41 39 39 44 51 63 74 72 62 56 58 63 66 58 44 31 45 78 100 100 90 72 61 56 58 61 62 69 70 84 79 65 64 68 82
74 85 89 88 85 86 92 95 88 52 31 32 34 35 36 46 79 75 71 71 71 78 85 70 66 55 58 100 100 100 100 96 87 80 77 74 73 70 68 68 70 73 79 84
88 70 51 48 64 77 87 99 95 79 62 36 30 31 31 34 70 88 86 92 83 79 68 69 97 100 100 100 100 100 100 100 100 100 100 99 99 98 97 98 97 98 98 98

GFSNGP_500_rhum_120.txt.gz
RH
63 53 82 100 89 100 99 100 73 63 74 71 73 69 62 57 50 44 41 38 34 26 18 12 11 5 4 3 4 7 89 82 89 86 81 79 34 27 29 34 26 12 19 31
59 40 52 68 87 100 95 100 100 94 65 56 67 56 47 48 41 39 38 34 29 22 16 7 4 4 11 6 6 37 100 96 92 90 86 94 34 28 33 35 33 15 11 17
87 96 49 65 59 93 100 84 91 93 79 52 51 57 45 38 34 35 35 33 28 20 6 3 4 18 67 40 33 92 99 100 91 96 95 100 47 29 35 38 34 31 12 10
77 47 48 21 42 68 88 94 94 80 58 35 35 30 28 25 22 17 19 21 21 14 5 6 5 52 75 75 62 84 94 100 95 97 96 100 60 32 38 38 34 31 26 13
98 86 76 52 20 20 32 55 61 50 46 41 30 27 26 26 22 11 14 7 5 5 17 24 26 74 59 94 82 99 100 98 96 97 95 98 60 38 41 44 35 33 30 26
100 100 100 99 100 81 48 15 16 15 21 22 14 8 42 32 19 5 7 14 12 14 38 75 54 89 72 92 98 85 99 96 96 97 97 98 76 42 48 49 41 32 32 36
100 100 100 100 86 77 55 33 22 28 60 64 53 66 81 80 59 13 12 9 34 50 66 92 70 82 100 95 94 91 83 88 95 96 95 95 93 45 60 53 44 33 32 35
100 99 100 76 97 85 70 41 77 100 100 98 87 95 100 100 63 37 14 30 51 57 81 100 82 82 99 100 98 93 98 89 90 87 89 100 97 94 69 53 48 43 40 36
86 75 71 95 100 97 100 100 100 100 93 66 67 94 88 87 100 53 76 75 70 66 86 100 97 84 97 100 97 90 98 97 98 81 94 93 96 94 90 88 73 61 64 66
100 94 91 87 89 100 100 100 96 91 99 94 80 73 74 75 85 98 96 97 100 99 100 100 99 100 86 99 90 97 98 98 93 98 75 97 97 96 97 98 98 93 87 90
100 100 100 100 98 100 100 97 100 83 84 80 70 74 77 74 87 97 94 100 100 98 100 99 80 97 98 100 97 100 97 98 98 98 98 91 96 98 100 98 98 98 92 94
92 100 100 100 100 98 100 79 89 79 68 64 78 86 80 64 69 79 100 100 100 100 99 54 30 80 98 99 99 100 100 85 98 98 98 98 97 96 98 100 99 98 98 97
90 99 100 100 90 100 96 100 96 81 64 82 91 100 100 93 65 74 99 91 98 83 48 67 47 19 69 97 97 98 98 99 95 99 99 98 97 97 99 99 99 98 99 99
98 90 98 98 100 99 94 93 91 97 86 83 84 97 100 98 93 70 73 82 86 58 49 37 40 21 23 75 97 92 98 98 97 98 99 98 99 99 98 98 97 94 94 95
81 78 65 61 71 79 81 80 78 82 89 89 88 99 100 80 96 95 94 84 60 41 33 32 28 29 26 9 32 56 66 90 95 99 98 99 98 100 99 98 99 99 87 100
65 74 71 69 70 81 88 91 92 90 94 97 97 98 99 85 78 90 80 73 72 54 32 24 22 24 21 25 10 9 14 20 23 65 87 84 98 94 95 76 48 57 31 72
80 74 70 73 78 89 98 97 99 100 100 98 95 100 100 95 79 62 54 73 80 63 70 70 42 24 16 16 9 7 8 10 13 13 16 29 25 28 35 35 93 93 52 49
74 67 64 62 57 51 46 43 40 56 71 94 52 74 100 87 78 67 49 47 100 96 86 78 77 56 32 29 24 19 23 30 31 28 29 38 42 44 47 59 64 70 68 67
67 58 49 43 37 33 29 26 26 27 29 29 58 37 40 66 63 64 59 51 40 66 91 100 97 98 94 98 98 78 54 60 75 74 79 74 61 52 52 60 69 72 85 100
28 24 21 20 17 17 20 20 21 19 17 16 17 20 23 24 31 44 54 56 54 50 35 36 69 78 92 97 100 100 100 100 100 100 100 96 97 100 100 95 95 97 100 100
23 24 26 28 26 26 33 47 56 57 45 27 20 16 16 18 20 21 22 29 42 52 52 49 38 36 39 92 100 97 100 100 100 100 100 100 100 100 100 100 100 100 100 100
32 34 40 44 42 36 35 36 47 59 66 64 58 53 43 29 24 24 21 18 17 19 28 44 50 48 42 34 32 48 78 92 92 95 96 97 98 100 100 100 100 100 100 100
25 25 29 30 33 37 38 39 37 42 59 65 69 91 91 80 69 58 44 34 24 18 16 16 19 35 50 50 48 41 34 32 31 31 45 74 97 99 100 100 100 100 100 100
30 32 36 42 48 53 58 60 50 36 36 46 54 56 71 73 79 74 66 55 47 42 37 29 24 18 17 29 57 61 63 54 48 46 42 41 42 66 100 100 100 100 98 96
62 82 85 82 78 78 73 69 72 78 79 42 37 46 43 40 47 55 70 79 69 54 48 51 52 46 35 34 26 36 78 87 84 82 74 62 64 71 86 93 93 93 89 77
88 90 85 86 71 59 55 52 63 74 87 91 72 32 39 37 36 35 35 43 79 75 71 70 66 67 74 60 50 50 41 38 85 100 100 93 76 69 68 66 68 69 71 75
90 93 99 95 88 86 72 53 51 63 80 86 84 62 26 28 31 31 32 32 41 79 84 96 87 81 59 59 64 74 90 98 98 97 96 99 100 100 100 100 100 99 96 95

GFSNGP_500_rhum_123.txt.gz
RH
97 24 100 100 100 100 98 98 97 100 100 100 100 100 100 90 78 64 49 48 44 42 39 36 35 34 33 33 35 24 13 7 3 3 18 63 79 88 81 49 25 28 24 20
100 100 100 82 100 100 100 100 97 100 96 100 100 100 83 69 54 45 45 40 38 36 34 33 30 28 28 29 27 20 10 4 3 3 7 58 86 89 84 54 26 30 25 25
79 100 96 88 29 69 99 100 100 100 89 100 100 90 67 55 46 41 37 30 26 27 28 26 25 25 25 23 18 13 4 2 3 3 14 72 95 90 80 58 28 30 25 30
71 82 98 100 100 100 100 88 92 84 72 55 79 71 59 50 37 30 26 31 27 19 18 15 15 18 19 17 11 7 3 8 21 7 60 97 96 90 82 71 30 32 26 30
100 100 100 71 99 43 42 20 71 86 72 50 30 30 35 22 20 24 19 15 12 24 24 14 10 12 13 12 3 3 21 32 22 25 99 99 91 95 96 90 38 34 26 27
95 99 96 100 97 98 18 14 23 24 36 39 39 19 27 20 18 27 58 38 26 15 12 13 11 8 8 7 3 6 45 57 55 65 98 93 92 97 99 97 51 35 31 26
84 86 98 100 100 90 83 100 95 67 40 50 37 55 83 74 60 58 72 56 19 5 6 6 6 6 6 5 4 27 37 91 78 64 97 100 96 96 95 99 70 36 38 33
100 87 100 95 75 100 100 99 94 91 100 100 100 100 98 98 97 90 84 37 15 12 13 18 32 38 28 9 20 49 42 80 78 80 86 97 96 97 96 98 92 44 40 44
78 93 96 97 99 98 100 100 100 100 100 100 97 89 75 74 83 79 89 72 35 12 16 60 68 64 81 55 43 62 42 79 92 96 97 94 96 96 97 97 97 90 89 61
100 100 100 100 100 100 100 100 100 97 98 98 94 82 76 82 78 85 95 100 69 58 31 100 98 83 93 94 56 69 80 82 97 96 98 93 95 96 95 99 98 97 97 81
100 100 100 98 99 100 100 100 100 94 81 69 66 66 75 78 64 56 81 100 100 80 89 100 100 99 100 100 62 71 99 95 90 97 97 97 90 90 87 99 100 98 96 96
100 100 100 100 96 86 78 88 94 85 71 73 74 77 79 98 93 87 63 84 100 100 100 100 100 96 96 100 91 83 99 100 100 97 98 97 99 100 99 94 92 100 99 96
100 100 100 100 100 100 100 95 82 94 93 78 67 74 90 96 100 100 96 76 100 100 100 100 94 46 61 99 100 90 100 96 96 98 96 98 99 99 99 97 100 98 98 98
91 100 100 98 99 95 89 81 80 84 85 86 90 94 93 100 98 98 100 100 99 99 100 99 92 59 31 59 99 100 97 100 99 99 98 98 98 99 99 98 98 99 98 98
79 85 82 56 53 57 63 66 71 74 78 82 86 94 100 100 98 87 100 100 98 98 100 99 77 69 30 20 34 97 99 99 99 95 99 98 97 98 98 99 99 99 100 99
61 65 77 80 81 81 81 86 94 100 100 100 100 100 100 100 100 93 74 80 82 64 64 83 68 43 28 26 20 16 85 98 98 99 99 99 98 99 99 98 100 100 98 99
81 75 69 65 64 66 70 64 57 47 50 96 97 74 61 100 100 90 89 65 71 77 69 41 41 68 49 32 22 19 11 66 98 98 99 99 99 99 99 100 99 100 100 100
86 85 83 77 68 55 46 42 37 33 31 29 31 70 57 83 85 79 79 76 54 92 96 79 80 82 70 57 38 28 19 17 28 57 82 95 95 98 98 99 99 99 100 92
69 52 37 28 23 20 18 17 16 16 16 16 16 20 25 38 53 39 59 69 66 53 79 93 91 92 89 75 67 63 55 53 52 51 57 61 55 52 57 63 83 95 94 90
32 24 20 18 18 19 20 20 19 20 26 22 19 17 16 16 20 25 26 34 54 60 55 45 45 83 90 94 99 99 100 100 98 91 95 96 97 98 98 91 82 72 65 68
21 18 17 18 24 30 32 31 28 27 28 30 37 36 25 20 16 15 18 21 24 30 48 52 50 45 34 44 58 93 100 100 100 100 100 100 100 100 100 100 100 100 100 100
27 29 28 25 24 24 24 27 32 32 30 29 30 48 58 46 39 29 20 18 19 19 19 23 35 47 50 47 39 34 51 87 99 100 100 100 100 100 100 100 100 100 100 100
37 35 33 29 28 29 29 38 45 51 48 40 29 28 47 62 70 77 71 53 32 24 21 20 18 18 22 34 50 50 46 40 33 34 48 67 61 72 96 100 100 100 100 100
24 27 34 51 67 72 72 64 60 59 58 63 67 63 31 43 57 80 86 81 73 59 44 35 28 23 21 18 16 18 35 54 55 53 48 42 39 37 38 41 51 90 100 100
32 33 36 57 81 80 82 71 57 58 57 54 61 73 84 48 42 55 57 60 76 78 77 65 47 37 31 27 24 23 20 18 19 30 58 71 74 69 66 66 66 68 83 96
27 28 34 65 83 89 93 87 83 66 60 48 57 79 92 91 46 47 49 41 39 38 42 67 68 60 55 48 43 42 44 47 40 38 38 34 29 44 79 100 98 89 79 75
32 39 62 76 84 90 92 89 81 73 68 46 41 51 70 82 68 36 46 44 37 35 34 33 37 66 69 68 66 63 55 40 43 39 36 41 52 60 69 77 85 92 100 100

GFSNGP_500_rhum_129.txt.gz
RH
41 46 82 84 74 82 100 85 95 94 98 100 100 100 100 100 98 100 100 98 79 64 64 85 89 94 90 83 76 51 48 47 49 48 47 54 47 27 16 13 37 26 41 80
76 84 95 49 50 37 53 72 91 83 96 98 100 100 100 100 100 99 73 72 85 87 100 100 76 88 69 67 47 30 32 37 39 46 53 44 45 35 19 26 34 15 30 73
65 61 52 67 62 97 93 51 79 87 93 95 100 100 100 100 100 84 87 100 100 96 88 84 80 67 57 54 36 26 18 25 30 32 48 49 50 42 28 19 19 13 14 76
70 61 78 96 100 81 83 67 65 88 94 93 99 99 100 100 95 94 94 91 89 87 78 69 59 52 43 33 16 17 13 13 24 26 28 32 63 57 40 26 33 8 8 62
48 66 87 100 94 99 97 86 73 94 82 92 97 95 97 84 90 93 88 88 78 66 51 42 36 35 33 27 14 5 4 4 14 23 24 25 34 40 33 20 10 6 7 50
70 85 100 79 100 100 96 94 99 100 82 65 73 68 60 68 77 70 68 71 61 28 20 21 25 25 22 19 10 4 2 2 8 14 21 22 22 25 23 12 16 19 8 30
100 100 100 99 94 90 78 100 100 94 88 96 100 89 46 39 35 56 51 26 24 46 30 24 24 22 18 16 11 2 2 2 3 7 16 20 20 18 14 13 55 52 14 32
94 75 81 91 89 83 99 100 80 96 100 100 98 100 100 100 100 99 90 65 46 35 30 30 21 15 18 19 17 10 7 5 3 4 8 14 14 11 12 21 86 75 46 42
89 81 81 95 100 96 100 100 100 100 100 100 100 97 86 72 65 54 40 31 24 22 19 21 26 28 22 20 24 13 12 10 5 4 4 8 9 6 39 70 64 98 56 49
100 95 100 100 97 100 100 100 100 100 100 99 87 78 70 68 58 46 38 37 30 23 20 28 29 35 38 52 36 10 12 10 6 5 4 5 6 8 19 98 50 98 48 76
100 100 96 100 100 100 100 100 100 92 83 80 71 64 63 62 61 59 54 51 38 36 33 34 33 33 65 73 61 32 40 56 61 28 6 4 5 6 25 86 99 88 76 80
100 100 100 100 100 100 100 96 90 89 76 66 64 63 60 59 57 56 52 49 41 51 56 68 57 62 96 100 68 40 76 96 59 56 25 10 5 5 8 77 80 90 97 93
100 100 100 100 100 100 100 94 86 70 54 52 54 70 72 74 75 70 64 65 70 77 78 93 98 100 100 100 97 100 97 100 100 100 54 34 8 10 31 59 100 100 99 99
99 100 99 100 100 90 64 58 56 57 54 54 68 70 68 74 81 82 82 84 92 87 89 93 100 100 100 100 100 100 99 100 100 100 100 95 47 12 27 43 50 97 98 98
90 85 79 70 65 65 64 62 61 60 64 64 53 41 34 58 65 84 82 90 99 97 89 92 96 98 100 100 100 97 100 100 100 100 100 100 72 40 42 69 86 83 99 96
86 84 80 77 75 69 65 66 68 68 55 39 30 22 19 18 19 41 71 97 95 97 88 89 100 100 100 100 100 96 100 100 100 100 100 100 99 69 81 98 98 98 99 99
75 79 77 79 79 84 84 65 31 20 17 17 16 16 16 15 16 17 21 65 81 63 95 91 99 100 100 100 100 100 100 98 98 100 100 100 100 100 100 100 100 100 98 98
89 88 91 82 62 50 34 20 17 15 14 12 14 14 15 16 14 13 16 18 46 65 31 74 91 98 100 100 100 100 100 100 97 100 100 100 100 100 100 100 99 99 99 99
90 84 76 64 55 37 24 19 20 22 22 20 17 17 19 21 21 18 14 12 16 23 37 26 47 78 72 84 100 100 98 97 100 100 100 100 100 100 100 100 100 100 100 100
95 96 96 63 41 30 26 25 27 28 22 19 17 16 14 15 18 27 29 24 16 15 16 20 20 26 54 75 58 83 100 100 100 100 100 100 100 100 100 100 100 100 100 100
91 72 56 52 47 42 37 32 24 17 18 24 29 23 20 19 34 44 51 51 43 33 17 16 16 19 23 29 52 66 47 73 100 100 100 100 100 100 100 99 99 100 100 100
74 65 59 51 38 22 18 18 21 26 36 38 54 54 45 54 49 43 41 48 50 54 46 26 20 21 21 22 22 25 41 60 56 49 73 96 99 100 100 100 100 100 100 100
68 60 51 33 20 24 24 23 21 23 28 35 60 68 74 72 62 64 64 56 56 59 66 47 31 42 46 33 24 20 20 21 27 38 51 52 45 46 57 71 88 98 100 100
56 52 48 33 27 27 23 22 27 23 26 40 55 82 87 81 70 66 52 37 53 73 83 66 43 58 74 67 51 38 29 24 20 18 16 17 23 32 43 46 47 44 41 41
61 57 48 38 32 24 37 57 55 48 49 52 58 88 90 83 75 63 38 37 64 95 100 84 49 68 81 86 76 62 48 38 31 29 24 20 20 20 19 18 17 20 23 30
62 51 40 27 28 55 71 80 81 88 90 82 84 97 96 86 72 63 50 38 58 77 92 86 50 60 66 73 82 81 73 64 55 46 40 37 35 32 32 35 33 28 26 24
51 35 28 40 67 78 84 87 91 93 100 100 100 97 90 81 73 66 62 52 48 64 75 78 50 50 54 45 40 38 37 36 38 48 59 60 59 56 56 54 39 39 41 39

GFSNGP_500_rhum_132.txt.gz
RH
83 76 70 66 92 62 49 83 68 73 96 90 98 79 100 100 100 93 100 100 100 100 100 100 100 100 99 88 71 71 90 69 80 87 81 78 74 60 33 44 34 20 48 64
79 71 72 75 52 46 42 67 78 67 61 66 76 98 100 100 100 100 100 100 100 100 100 100 100 95 73 59 67 70 82 56 39 47 56 50 55 47 50 49 46 23 32 59
64 75 73 41 86 68 91 100 89 64 54 56 57 95 99 100 99 100 100 100 100 100 100 99 90 86 74 64 64 68 66 89 66 45 40 37 44 54 46 53 50 32 16 43
67 67 55 80 87 95 91 100 94 85 66 68 69 86 92 91 100 88 81 93 96 99 100 100 100 98 83 69 67 66 58 86 53 40 35 28 32 59 61 46 44 39 20 42
71 78 67 89 100 97 88 90 100 100 77 52 31 34 81 98 97 100 98 91 89 81 88 95 89 78 73 70 66 54 52 47 73 28 14 19 23 29 67 69 53 39 24 38
75 73 78 85 91 100 90 96 90 90 90 100 93 58 69 59 56 62 59 54 48 46 46 48 42 42 39 39 39 36 36 31 24 25 7 4 15 24 26 28 36 50 32 31
78 87 98 100 92 77 87 71 77 64 82 100 98 100 82 57 39 34 29 27 25 25 26 27 26 28 27 26 25 23 21 19 14 9 4 2 5 19 22 24 31 48 34 80
88 76 76 100 96 100 100 100 100 100 100 100 100 100 100 100 95 84 60 35 36 37 40 38 33 28 25 22 19 17 16 14 12 10 5 2 2 12 20 22 23 23 26 17
66 60 67 96 98 100 100 100 100 100 100 100 100 100 92 82 76 70 61 48 37 29 23 18 16 16 18 17 15 15 13 11 9 9 8 2 2 7 15 19 21 22 14 60
80 78 85 95 97 100 100 100 100 100 100 100 96 84 76 65 57 53 50 45 40 33 26 25 22 17 14 11 12 11 9 8 11 12 10 5 2 4 8 15 18 20 12 53
100 98 91 90 95 100 100 100 100 100 86 72 64 57 52 49 46 42 42 43 43 42 37 36 37 37 34 26 24 19 15 22 26 28 14 7 3 4 6 8 14 14 13 14
100 100 100 100 98 100 100 100 92 81 73 66 66 65 71 74 73 75 73 63 56 58 62 68 64 59 62 66 59 70 60 76 46 43 62 22 14 4 4 5 9 9 16 85
100 100 100 100 100 100 100 76 66 68 67 66 64 69 63 55 49 66 79 84 82 70 72 69 76 69 69 94 92 74 80 82 95 82 80 79 30 19 4 4 6 6 9 64
100 98 100 100 100 99 78 61 57 58 57 63 64 54 42 32 28 28 39 63 78 74 89 89 86 82 73 92 98 95 93 99 95 100 100 94 74 19 8 4 5 5 11 76
97 98 88 80 70 65 57 59 62 68 68 58 34 18 17 19 19 18 18 19 55 80 92 90 91 86 91 100 100 97 96 100 100 100 100 100 92 78 16 6 6 6 11 72
71 83 80 77 77 73 76 83 79 56 27 18 15 13 11 10 10 10 11 14 17 28 81 70 86 94 88 97 100 100 99 94 100 100 100 100 100 94 75 23 14 8 40 65
51 69 75 79 85 80 65 49 31 22 18 19 22 21 17 13 12 13 11 11 11 15 18 73 52 77 86 90 100 100 100 100 100 100 100 100 100 100 80 64 40 15 32 67
59 73 81 83 79 75 70 46 30 24 24 26 28 26 19 16 12 13 17 19 21 15 13 17 54 42 61 77 95 99 100 100 100 100 100 100 100 100 100 90 82 66 78 96
62 77 96 100 94 64 49 41 39 38 36 33 28 19 15 14 16 16 16 16 29 35 31 19 16 34 45 48 67 89 100 100 100 100 100 100 100 100 100 100 100 100 100 100
62 81 98 84 64 58 55 49 42 31 19 14 14 28 40 42 49 43 34 31 39 41 43 36 33 17 18 25 35 61 69 98 100 100 100 100 100 100 100 100 100 100 100 100
69 89 92 78 66 60 50 41 27 17 18 17 17 19 33 36 57 61 64 49 44 43 41 41 42 42 24 18 20 26 52 58 69 99 100 100 100 100 100 100 100 100 100 100
88 92 88 69 60 53 46 39 26 25 25 19 23 20 23 34 49 76 80 68 59 65 66 61 57 52 50 29 22 24 22 28 51 59 64 94 100 100 100 100 100 100 100 100
100 98 75 64 54 44 42 40 35 26 22 36 44 39 36 40 52 85 90 79 67 59 40 43 61 72 70 46 32 43 38 27 23 24 40 54 60 68 82 94 98 100 100 100
85 73 67 55 48 46 45 33 22 39 58 63 62 69 64 59 68 86 92 85 61 51 28 47 88 100 96 50 51 67 71 53 35 26 21 19 20 26 39 48 55 56 57 59
77 70 62 54 46 44 30 23 37 58 66 74 83 86 96 100 92 95 94 80 65 58 37 50 75 98 98 52 63 80 83 75 61 48 38 30 24 19 18 20 21 21 21 26
76 66 56 49 46 35 29 38 62 71 74 78 85 88 91 94 92 90 90 80 71 62 55 53 71 83 88 54 63 74 85 90 90 80 66 53 44 40 37 35 30 28 31 32
69 58 51 44 39 44 62 73 77 78 77 78 80 78 78 85 90 86 83 75 67 56 57 59 64 81 84 57 52 60 61 63 59 57 56 56 61 63 60 55 52 45 42 42

GFSNGP_500_rhum_138.txt.gz
RH
14 24 26 28 40 81 79 74 60 41 38 36 68 50 69 97 99 100 100 98 100 100 100 100 100 100 100 83 89 75 72 94 96 89 88 72 67 78 64 75 88 98 96 89
32 31 29 36 51 42 54 78 61 63 92 100 95 57 49 54 82 100 100 100 100 100 100 99 100 100 82 73 83 75 81 78 93 100 99 85 77 75 54 61 50 70 99 99
35 33 52 56 47 75 74 93 96 100 96 97 93 83 53 42 77 86 99 100 100 100 94 100 100 100 94 100 100 100 100 98 100 100 93 84 75 63 56 43 48 61 46 78
41 49 54 57 64 74 78 82 89 85 87 87 94 82 64 42 81 78 86 81 90 99 98 100 100 100 100 100 100 100 100 100 100 100 98 86 64 59 62 62 64 47 53 24
38 42 62 61 67 86 88 80 94 64 88 91 96 93 78 66 35 47 58 53 55 56 71 79 96 100 100 100 100 100 100 100 100 100 100 73 57 50 52 49 48 63 45 35
43 44 43 51 53 53 88 100 84 86 81 96 98 98 92 51 24 24 34 38 46 40 35 38 40 41 49 69 61 62 72 66 75 91 95 80 43 32 31 30 34 36 52 44
56 52 58 61 64 77 99 100 100 99 99 100 100 100 100 100 63 38 26 33 42 37 33 33 34 32 31 31 31 33 32 36 30 25 26 28 31 31 30 28 27 30 37 48
67 75 73 69 80 95 100 99 100 100 100 100 100 100 100 100 100 86 70 54 40 41 39 35 31 31 25 22 21 19 18 18 18 17 17 16 18 21 20 19 19 18 21 25
89 95 89 93 86 100 100 100 100 96 100 100 100 100 99 98 96 88 81 75 64 53 46 39 37 37 32 28 23 21 19 19 18 14 13 12 14 14 13 13 16 16 16 14
94 100 100 97 88 92 100 93 100 100 100 99 89 80 78 76 74 70 70 72 67 56 42 37 33 30 30 27 22 20 23 22 17 15 13 12 10 9 10 8 9 13 13 10
80 95 98 90 93 81 97 92 91 100 84 73 72 65 60 59 61 61 58 56 55 51 59 59 50 47 39 34 36 37 40 37 36 24 18 14 11 10 9 10 7 8 11 10
51 91 91 92 97 81 82 86 95 96 71 63 54 50 46 47 52 48 45 41 40 37 34 39 36 38 38 35 33 38 46 53 52 46 40 36 32 22 10 9 7 6 6 8
56 46 97 92 92 98 96 96 99 77 64 52 46 48 50 38 18 14 12 11 11 13 15 15 15 17 39 50 56 62 68 83 83 77 72 64 58 49 42 45 56 42 10 5
66 44 78 100 97 94 94 93 77 63 59 59 61 55 29 19 22 23 22 19 15 13 11 9 9 9 10 17 26 72 77 92 96 88 84 80 80 65 62 59 71 59 63 34
50 42 44 71 88 90 82 70 60 56 58 56 43 32 25 27 31 28 21 15 14 12 12 12 11 11 14 14 12 19 63 58 90 87 84 77 60 71 78 77 84 95 87 73
47 46 44 41 65 76 75 71 68 67 66 62 55 39 39 29 17 14 14 13 15 28 28 28 17 12 16 23 26 16 24 50 61 88 92 79 88 82 85 80 79 90 94 99
78 80 59 42 49 73 76 78 77 72 57 48 47 39 26 21 20 19 15 13 12 12 26 47 54 30 14 18 31 30 16 22 43 64 87 88 100 98 93 89 100 99 100 100
100 99 81 61 47 47 53 74 70 63 59 54 45 38 32 25 22 17 15 15 16 17 35 40 64 39 14 28 37 31 30 19 24 34 63 91 94 100 100 100 99 100 100 100
98 96 93 83 60 43 38 47 46 68 71 53 44 33 28 22 17 17 19 24 27 22 26 42 67 61 46 44 43 42 42 42 31 20 28 64 100 98 100 100 100 100 100 100
88 78 75 74 67 57 48 38 38 72 73 56 44 30 24 20 18 18 19 30 40 49 43 45 76 70 64 65 64 61 58 51 47 41 20 30 77 100 100 100 100 100 100 100
77 81 81 72 66 62 57 61 68 86 70 55 45 32 28 22 19 22 36 48 51 68 71 64 85 91 76 71 63 46 35 39 46 50 40 25 35 86 100 100 100 100 100 100
93 96 93 87 82 78 82 87 93 82 64 55 42 36 32 24 21 22 46 59 66 74 83 86 86 91 89 70 61 35 32 49 66 77 56 34 36 38 80 100 100 100 100 100
95 97 100 100 99 96 99 98 87 71 61 53 46 40 34 29 25 26 42 55 62 69 75 82 85 87 87 80 64 40 39 70 100 93 59 48 54 44 37 61 95 100 100 100
97 100 100 100 100 100 98 96 84 73 66 56 48 42 37 33 31 32 42 58 61 63 64 65 72 83 88 83 70 55 57 84 100 79 58 71 75 60 50 44 36 55 96 100
76 85 95 94 94 91 86 82 76 69 62 56 53 52 52 52 55 56 56 57 57 57 56 54 54 54 56 77 81 64 73 85 98 73 70 81 86 84 68 59 56 48 37 38
63 64 67 70 78 83 82 80 76 70 65 57 49 42 36 31 28 27 26 26 26 25 23 23 26 30 34 37 39 51 50 90 99 80 68 78 90 95 91 83 72 65 60 55
66 65 73 85 88 84 75 60 39 23 17 15 14 14 14 14 14 14 13 13 13 13 13 13 13 13 14 16 18 22 26 36 90 100 74 69 74 82 89 93 94 90 83 75

GFSNGP_500_rhum_141.txt.gz
RH
4 7 11 20 24 33 39 38 41 58 57 47 57 52 54 53 43 71 98 100 100 100 100 100 100 100 100 100 100 100 100 95 100 98 99 88 92 89 100 76 67 60 72 82
8 12 20 23 44 38 40 58 69 88 85 100 96 72 60 69 43 48 73 99 100 100 100 100 100 100 100 100 100 100 95 98 100 95 96 97 100 96 100 86 68 60 64 72
12 18 26 36 42 40 45 58 75 86 84 82 79 61 37 60 69 51 66 93 100 100 100 100 100 100 100 99 100 99 100 100 100 100 93 100 99 99 98 95 72 54 57 66
21 25 28 38 41 44 57 69 87 94 83 80 67 83 79 77 68 46 56 64 77 80 98 100 100 100 100 100 100 100 100 100 97 91 93 98 99 99 97 94 73 57 53 46
21 26 24 40 48 48 50 76 100 100 81 80 84 81 91 91 67 37 44 38 43 42 62 76 81 93 98 100 100 100 100 100 100 100 100 89 91 87 87 95 72 55 44 49
41 33 25 32 32 45 58 92 96 92 100 100 100 100 100 91 77 65 48 38 36 34 48 42 38 46 52 68 68 94 99 94 91 96 96 97 97 98 99 85 67 42 34 32
55 54 48 38 41 51 78 100 99 100 99 97 100 100 100 100 100 98 84 48 31 32 38 46 34 32 32 26 28 29 33 35 44 40 36 33 31 31 37 66 56 31 28 27
46 55 63 62 53 68 86 100 100 100 100 100 100 100 100 100 100 100 100 81 67 79 65 47 42 35 30 26 22 19 16 16 15 14 14 16 18 19 20 21 20 21 21 20
55 72 83 78 71 92 99 100 100 100 100 100 100 99 94 81 75 75 76 70 64 56 47 43 40 39 36 32 30 30 26 23 20 19 19 15 12 10 10 10 11 13 14 13
68 73 95 93 100 100 100 100 100 100 100 100 89 85 71 64 62 60 61 60 56 57 59 53 48 46 38 28 25 23 23 23 20 18 18 16 10 9 8 7 7 7 7 8
67 61 97 99 98 100 98 92 96 100 100 94 80 66 60 57 49 44 36 27 28 30 34 36 37 35 38 34 33 36 32 28 29 35 37 42 33 22 16 9 6 5 4 5
62 61 67 100 100 100 100 99 97 97 99 85 67 62 61 56 47 24 16 17 18 18 15 13 12 12 12 12 11 16 33 39 39 45 49 61 58 42 23 24 22 11 5 4
50 70 65 76 100 100 100 100 99 100 94 68 54 50 55 49 27 21 24 28 26 20 16 14 12 11 10 9 8 8 8 8 13 31 51 72 73 63 64 56 55 44 27 14
39 49 72 61 87 100 100 99 94 84 76 67 58 53 48 38 36 31 33 21 15 12 11 10 10 10 9 10 10 10 10 10 9 9 35 71 86 85 72 71 66 57 58 47
27 41 50 55 49 65 88 91 88 82 74 67 62 62 59 53 42 34 19 19 19 15 13 11 10 9 11 18 18 14 11 13 17 14 14 54 87 97 86 67 74 62 71 67
21 34 45 49 52 54 71 82 85 85 83 81 75 63 48 44 35 28 24 20 16 14 13 12 12 13 27 37 46 29 14 15 26 25 15 29 63 85 85 88 84 84 72 78
26 44 62 75 73 71 73 76 71 76 82 70 57 54 48 42 35 29 23 16 13 12 13 20 23 20 27 41 56 27 21 35 34 34 33 20 35 61 85 73 76 90 78 74
70 82 90 93 95 91 81 63 53 37 36 44 41 59 54 42 35 26 19 16 15 13 13 21 34 33 32 59 76 56 50 52 50 50 46 41 24 34 67 84 76 90 85 92
99 100 99 89 78 72 69 66 60 45 31 26 19 43 60 45 36 26 21 19 17 16 15 26 40 50 49 55 87 76 66 66 64 54 47 43 42 26 32 86 85 90 88 89
100 100 93 77 75 71 63 56 51 48 41 35 29 39 66 50 37 26 21 21 20 19 19 34 49 56 66 64 70 86 82 72 62 37 31 32 35 40 25 50 93 92 92 89
100 100 97 93 91 88 81 72 66 56 54 53 58 60 61 52 45 39 32 28 26 23 22 23 46 54 60 68 70 76 83 77 63 38 30 42 52 54 40 30 78 99 99 96
100 100 100 94 87 92 97 99 98 89 80 76 79 78 67 58 50 42 41 38 34 31 28 25 31 50 52 55 66 76 79 77 69 45 38 69 91 73 51 46 45 93 100 100
95 95 92 88 89 94 99 97 97 97 92 88 84 78 69 61 55 52 49 45 42 40 38 36 36 47 52 51 52 58 77 82 75 60 55 92 95 74 71 72 61 47 90 100
72 70 69 67 65 67 80 80 75 79 77 72 68 64 58 53 50 48 43 41 40 40 41 40 40 43 45 46 46 49 51 60 71 69 75 92 86 80 100 88 82 80 64 66
78 71 67 60 54 53 57 65 77 79 70 58 45 32 21 18 17 16 15 14 14 13 13 14 15 17 17 16 17 22 30 36 38 42 76 97 87 77 98 100 100 95 88 81
78 79 75 73 77 82 83 73 51 29 18 17 18 18 18 19 20 20 20 19 17 15 14 13 13 13 13 13 12 12 12 15 20 24 38 92 100 82 80 96 100 100 100 98
93 98 100 88 63 36 21 18 19 20 22 23 25 27 28 27 25 22 18 14 12 12 13 13 12 11 13 14 15 15 14 13 13 14 16 44 99 100 93 80 83 94 100 100

GFSNGP_500_rhum_144.txt.gz
RH
7 4 4 6 9 14 16 19 23 33 49 60 76 70 76 64 80 65 46 42 79 100 100 95 100 100 100 100 100 100 92 73 76 93 92 71 62 92 100 97 92 94 84 75
3 4 5 8 14 27 33 35 44 49 60 64 82 52 51 48 48 55 54 46 77 91 91 99 100 100 100 100 100 100 82 64 60 59 66 69 93 100 100 100 99 92 79 75
4 5 8 13 28 33 31 36 52 45 59 82 89 74 62 65 70 54 46 53 76 90 99 100 100 100 100 100 100 100 100 95 69 83 84 97 100 100 97 95 93 98 83 67
5 7 12 15 26 39 34 40 33 47 75 90 72 57 77 86 83 90 76 44 60 80 90 95 88 100 100 100 100 100 100 100 87 71 93 96 100 97 83 87 99 98 99 78
8 11 13 20 24 29 33 28 42 75 78 88 94 86 88 86 90 94 81 56 42 56 56 59 69 87 92 99 100 100 100 99 99 98 99 100 100 100 91 88 98 100 100 98
12 15 19 20 20 24 29 29 62 68 86 90 93 100 99 94 100 100 100 76 52 41 45 40 46 43 43 72 89 94 96 97 100 100 100 100 96 96 87 99 87 76 70 76
23 40 45 43 40 34 35 47 61 71 83 88 92 99 100 100 100 100 100 100 83 68 54 48 36 36 39 36 36 45 46 43 53 61 70 77 59 43 57 66 67 71 78 89
27 36 40 49 49 45 48 56 60 77 79 92 97 100 100 97 89 88 89 86 81 78 71 65 61 52 47 43 36 29 24 22 22 20 18 20 18 20 20 21 21 26 34 79
30 32 39 48 62 69 76 65 68 83 85 99 100 98 83 78 71 68 59 48 49 55 54 57 59 53 43 32 29 29 29 28 24 21 18 15 14 14 11 9 9 9 10 12
31 39 45 56 75 90 92 75 77 87 93 92 100 86 72 64 69 61 35 22 18 17 22 36 42 46 45 43 36 29 22 18 17 16 14 12 10 11 12 13 12 10 7 6
29 44 56 62 77 98 97 95 90 89 88 89 98 86 65 65 67 52 36 26 23 24 21 16 14 18 22 25 26 30 31 24 20 23 20 20 18 18 21 19 11 6 4 5
28 46 56 63 64 89 94 83 85 96 100 100 99 83 56 56 56 42 27 23 26 29 24 17 13 12 12 11 11 10 10 9 8 8 8 11 16 16 18 34 31 20 9 5
22 40 51 58 74 68 100 100 99 96 94 92 89 76 57 51 47 39 44 42 36 22 16 16 14 12 10 9 8 8 8 8 8 8 8 9 8 7 8 33 46 51 40 30
21 24 41 44 49 74 58 85 100 100 97 90 84 78 66 61 61 61 54 41 28 20 18 14 12 9 7 7 9 9 17 21 14 8 7 9 9 9 9 24 57 74 60 47
24 23 25 33 38 51 57 54 68 88 91 87 83 80 80 75 62 48 39 31 26 20 15 12 9 7 7 8 12 14 23 26 15 12 12 14 16 15 12 21 54 79 86 75
28 25 22 22 32 46 55 54 59 71 82 74 76 80 75 64 57 50 40 33 30 21 16 12 9 8 8 14 23 21 22 42 31 25 33 33 27 26 16 20 45 65 79 75
18 23 29 41 56 63 72 76 76 73 62 60 52 41 34 28 34 53 47 33 28 22 17 14 13 11 10 14 28 42 38 51 61 50 53 54 48 43 43 32 26 47 74 80
60 70 83 97 100 100 95 83 70 64 61 55 51 47 36 25 21 26 54 51 32 24 20 17 17 14 14 12 26 42 54 55 73 78 68 65 62 46 43 37 29 26 51 75
94 100 100 100 100 99 82 70 65 60 54 48 42 39 38 33 27 23 39 62 49 36 27 22 21 21 18 17 17 36 53 59 60 71 80 75 64 34 27 28 26 25 31 66
100 100 100 100 100 96 88 85 79 75 72 70 64 51 40 36 32 26 28 35 49 50 45 38 33 30 27 24 21 21 39 50 57 66 73 74 67 44 29 34 35 31 26 62
84 100 100 100 100 100 96 83 78 77 81 82 84 88 81 69 68 70 69 70 62 55 50 45 41 39 35 31 27 24 27 41 48 54 71 75 68 53 34 47 61 54 36 66
98 96 92 91 90 86 82 77 70 70 74 82 84 83 84 80 76 72 69 64 59 54 49 45 42 40 38 35 32 29 27 37 46 48 54 73 73 58 50 76 81 64 57 68
87 83 79 73 70 68 64 58 53 52 52 56 62 69 70 60 47 36 31 26 24 23 22 21 20 21 24 28 32 33 32 35 40 42 45 49 63 71 72 88 77 72 82 69
87 82 77 73 69 66 65 62 59 65 75 74 55 27 20 18 18 18 18 18 18 19 20 19 19 18 16 14 13 13 14 17 15 15 22 34 34 63 90 92 80 83 91 92
84 83 80 80 82 87 90 86 66 30 18 17 18 20 21 22 23 23 23 23 22 22 21 21 21 21 20 19 18 14 13 13 13 12 12 14 20 34 96 100 87 90 92 97
92 95 96 92 75 40 21 18 18 17 16 15 16 18 19 19 17 15 12 10 10 10 10 10 10 10 10 10 12 15 14 12 14 15 14 14 14 15 70 100 100 93 94 100
93 70 33 20 20 19 19 18 17 16 14 16 18 20 16 12 11 12 13 13 13 13 14 13 13 12 11 11 11 10 12 13 13 15 17 16 16 14 15 83 100 100 100 96

GFSNGP_500_rhum_150.txt.gz
RH
100 99 90 98 76 84 70 27 8 13 38 90 36 33 15 13 20 35 32 41 48 47 54 41 30 60 81 100 100 93 89 90 81 89 100 100 100 100 99 89 98 99 69 78
100 100 97 96 82 48 12 4 5 10 81 11 21 21 15 16 31 37 43 53 59 70 72 65 61 67 99 98 100 100 100 92 99 100 100 100 100 100 100 98 100 85 98 100
87 100 95 77 49 14 10 10 6 9 14 15 22 17 14 33 41 46 60 65 88 93 71 53 60 74 100 90 100 100 100 100 100 100 100 100 100 100 100 100 100 100 100 88
98 84 56 46 39 18 8 6 9 12 15 25 22 17 24 50 39 52 58 73 86 91 93 74 64 74 100 79 76 95 98 100 100 100 100 100 100 100 96 100 100 99 100 100
76 81 80 48 12 26 18 13 13 15 16 16 18 20 27 53 49 55 76 89 89 93 98 95 81 66 88 65 53 60 80 75 100 100 100 100 100 100 100 100 100 100 99 100
20 11 6 10 9 26 14 16 15 26 26 25 24 22 28 48 62 84 94 74 88 100 100 98 77 71 64 58 59 49 51 45 50 87 99 100 100 100 100 100 100 94 93 94
10 5 5 6 13 27 15 19 26 37 25 23 30 34 44 57 71 91 60 64 57 30 36 45 54 64 60 51 54 48 43 39 37 37 48 92 99 100 100 100 100 99 98 91
5 5 8 17 32 19 18 26 30 34 44 45 45 40 55 66 80 100 60 47 54 30 18 19 20 25 33 43 48 50 44 35 31 29 28 28 31 46 51 61 78 61 63 94
7 8 21 25 14 26 37 34 35 28 43 61 54 54 60 69 75 86 78 43 51 32 22 25 28 27 22 18 17 23 33 38 38 34 28 22 20 21 21 24 28 34 38 38
6 9 7 8 11 17 28 42 42 33 46 66 63 64 64 74 74 73 88 60 49 38 36 45 42 29 18 14 13 12 12 12 13 14 19 23 23 19 15 15 16 16 18 20
6 6 6 8 10 13 20 49 54 57 58 72 78 78 76 77 80 75 80 88 49 43 45 51 45 30 18 16 14 12 9 8 8 8 8 10 10 11 14 18 17 13 11 12
8 6 6 6 8 16 22 35 55 62 70 68 84 92 94 90 91 89 78 68 58 45 44 37 32 27 21 17 12 10 7 6 6 5 5 4 4 5 7 8 8 9 12 14
12 8 8 6 6 10 20 26 43 51 52 66 59 57 82 94 92 84 78 69 68 62 53 45 36 31 25 20 15 12 8 8 7 7 6 6 8 10 11 7 4 4 5 6
16 16 10 8 8 9 16 24 28 31 37 42 58 60 62 74 74 65 60 61 59 53 39 33 40 42 36 26 20 15 11 9 9 10 10 8 7 8 13 18 21 16 14 7
21 17 14 10 9 15 26 26 28 44 66 78 78 69 69 64 54 51 48 45 40 35 30 25 21 21 25 35 33 23 18 14 15 17 18 16 13 10 9 18 29 33 32 32
23 19 12 10 20 21 32 83 99 100 100 100 100 93 72 54 41 34 29 26 23 23 26 27 28 29 29 22 20 32 30 22 18 18 20 21 21 21 17 12 19 33 39 49
21 11 11 30 73 72 71 78 84 94 92 99 100 79 64 56 52 47 41 35 30 23 19 17 17 16 20 22 21 16 16 18 26 30 29 28 25 24 24 21 15 18 35 38
10 10 19 41 61 81 91 94 100 100 100 100 92 78 68 63 59 57 54 53 57 57 55 56 51 39 28 26 24 20 18 18 19 22 24 28 32 31 28 28 24 15 21 36
9 16 26 37 72 100 100 100 100 92 87 75 63 58 54 48 47 47 45 45 48 49 52 55 57 59 62 65 63 59 56 51 48 42 41 42 42 41 36 32 31 26 18 28
18 30 38 50 54 51 50 51 54 53 49 47 49 49 48 49 51 50 43 31 21 16 14 13 13 13 14 16 18 22 28 35 39 44 46 48 48 46 43 37 35 30 24 21
26 36 46 52 58 60 60 60 60 59 55 52 52 58 57 40 17 14 14 14 14 13 12 12 13 14 14 14 14 15 15 15 15 15 16 18 23 29 31 32 30 28 25 24
29 40 52 59 60 59 60 60 58 61 67 62 34 17 16 16 16 17 19 17 14 14 15 16 15 14 13 13 14 14 15 16 16 16 17 17 17 16 15 17 22 26 27 27
42 58 64 66 66 64 65 71 67 37 19 17 18 20 20 22 24 25 21 16 14 15 12 11 12 12 12 12 12 12 11 11 11 11 13 16 20 21 19 17 15 14 16 18
55 62 67 71 73 70 40 19 18 17 19 23 24 24 25 28 28 24 21 18 14 12 13 14 15 15 15 15 15 15 14 13 12 12 11 10 11 16 22 22 19 14 15 15
60 66 68 68 43 20 19 17 19 26 29 28 25 26 29 34 30 27 21 19 12 13 15 16 17 18 18 19 24 25 23 21 19 16 14 13 12 12 12 15 16 15 17 18
62 68 67 39 20 20 18 24 32 29 25 24 24 24 28 36 35 29 21 22 13 14 16 18 19 21 23 23 29 34 33 31 30 27 24 20 19 18 16 15 15 17 18 20
63 72 58 23 21 20 26 32 29 27 28 27 27 27 29 35 36 31 23 24 18 14 17 20 21 24 25 28 29 31 36 34 36 40 39 34 31 28 27 25 24 22 22 24

GFSNGP_500_rhum_156.txt.gz
RH
55 69 84 57 59 52 49 65 68 84 100 95 90 88 47 44 25 10 6 8 12 11 21 20 37 42 52 52 53 40 66 97 98 99 100 99 99 97 100 100 100 100 99 100
56 58 73 61 56 54 64 82 90 100 94 92 75 54 61 34 9 7 8 11 13 16 26 26 41 34 58 63 50 44 49 96 94 93 98 100 100 100 100 100 98 100 100 100
46 85 93 68 62 98 95 81 87 80 78 69 67 54 30 12 10 10 13 15 16 20 36 53 40 39 51 76 49 46 52 63 81 57 93 96 100 100 100 100 100 100 100 100
65 84 74 52 55 76 85 98 90 69 66 60 44 29 16 10 15 16 16 20 20 22 38 75 40 36 27 36 53 51 48 50 56 48 46 68 78 100 100 100 100 100 100 100
95 95 66 52 55 78 100 92 86 80 53 31 30 14 10 12 17 18 19 20 28 27 43 74 43 31 34 22 24 26 31 35 42 42 44 39 43 52 98 100 99 100 100 100
92 76 63 71 100 99 94 76 51 30 29 28 18 14 12 14 19 19 28 45 34 34 44 59 60 30 33 28 28 32 22 19 22 32 35 38 36 33 49 72 96 100 100 100
81 81 76 83 95 87 67 36 28 24 21 24 28 17 14 14 16 18 29 40 39 50 45 59 69 53 30 31 44 43 25 16 14 13 16 26 34 33 30 29 28 35 76 97
75 72 69 81 72 64 34 20 16 15 20 17 15 12 14 16 20 20 26 47 40 46 54 66 66 71 48 30 35 48 37 20 16 14 11 10 11 15 18 22 24 23 21 24
70 74 88 89 46 8 15 11 9 9 7 8 8 10 13 27 29 28 44 71 71 66 65 65 61 62 66 54 29 34 32 26 18 14 11 8 8 8 8 9 11 12 13 16
72 82 67 13 10 10 8 7 7 6 7 7 9 11 14 30 50 63 66 65 86 90 86 86 82 75 71 59 51 33 32 27 22 16 12 13 8 6 6 6 5 5 7 10
62 31 10 8 7 6 7 8 8 8 9 8 10 14 22 27 47 56 57 69 63 77 85 83 79 72 67 65 60 48 38 30 26 26 20 18 15 8 8 7 7 6 5 5
12 8 7 7 8 10 11 14 16 14 12 10 10 13 22 31 35 39 56 78 89 87 75 66 56 45 36 37 39 38 35 29 28 29 32 28 21 14 8 8 8 8 8 8
6 8 19 11 13 16 18 19 18 18 15 12 15 24 26 27 31 54 98 100 100 98 81 72 56 46 38 34 34 34 34 34 31 25 23 27 33 30 19 14 11 12 10 10
16 18 14 17 20 21 21 22 19 13 11 16 26 42 63 80 85 87 80 82 84 74 61 51 44 38 34 30 26 22 19 18 17 21 26 28 30 27 28 31 20 16 16 19
15 19 21 23 23 24 23 17 10 10 22 38 53 72 77 68 76 81 89 89 76 58 38 36 35 34 35 36 38 38 37 35 32 24 16 15 17 21 26 28 25 28 20 17
24 26 27 26 25 22 12 8 11 17 42 57 57 64 69 71 60 61 58 40 28 32 39 37 29 20 18 17 16 16 16 16 17 21 29 41 39 25 18 18 21 25 23 21
29 30 27 24 21 9 8 11 12 23 50 51 49 42 56 39 34 33 34 38 35 21 18 18 20 19 18 18 17 15 14 13 13 13 13 14 14 16 32 46 39 27 19 23
33 29 26 21 9 9 12 12 14 19 31 39 43 34 32 38 47 44 23 19 20 20 19 18 19 20 19 18 16 12 11 9 8 8 9 11 12 12 13 12 15 31 46 45
33 29 24 13 8 13 17 18 20 23 26 31 36 41 47 38 19 20 21 21 21 20 20 22 23 21 22 19 14 13 12 11 12 12 11 11 10 11 13 13 13 12 12 17
33 30 17 9 11 19 22 24 26 28 32 38 46 37 17 20 22 22 22 24 24 24 23 24 23 24 24 18 13 14 13 14 14 14 14 13 12 12 11 11 13 15 15 14
35 24 11 10 17 28 34 40 42 43 45 36 17 18 22 23 23 24 27 28 29 27 26 26 27 27 24 18 13 15 15 16 17 16 16 16 16 14 13 12 12 11 12 15
34 21 10 11 25 35 47 53 54 50 23 16 20 23 24 26 28 32 34 33 33 31 29 29 30 29 26 18 14 16 17 19 20 20 20 21 22 25 22 17 15 14 12 12
34 16 9 15 32 45 55 56 48 21 17 20 26 26 29 32 38 39 39 39 39 36 33 33 35 33 29 19 15 17 19 21 24 23 25 27 26 31 31 28 22 18 14 13
32 14 10 20 36 50 56 58 33 19 18 25 29 29 35 41 42 45 45 47 45 43 39 37 38 35 31 20 16 19 20 22 25 26 26 32 31 30 33 34 34 30 23 18
33 16 11 19 38 53 60 59 32 20 19 28 33 31 38 47 50 53 56 58 52 48 46 41 41 38 32 19 17 19 22 24 26 28 28 31 37 33 34 36 41 42 37 30
38 19 13 20 34 50 61 63 36 22 22 33 35 34 38 51 57 62 67 68 59 54 52 46 44 41 33 18 17 19 21 25 27 29 32 32 35 40 36 35 38 43 46 42
39 20 14 23 40 50 67 69 42 24 25 42 46 44 45 52 64 72 77 74 63 59 56 52 47 45 35 18 16 19 20 24 28 30 35 34 34 36 42 42 36 38 41 48

GFSNGP_500_rhum_159.txt.gz
RH
100 88 62 53 44 47 49 49 48 45 52 92 75 81 84 95 95 66 48 52 16 8 8 8 11 11 22 35 25 31 55 42 39 37 79 96 67 99 100 100 100 100 100 100
96 74 65 55 50 47 47 44 60 79 62 81 95 83 88 78 68 55 56 18 9 9 7 8 12 13 25 43 25 31 31 47 45 46 47 65 68 63 100 100 100 100 100 100
72 68 70 58 54 55 57 66 68 59 64 74 89 92 73 66 63 44 19 10 8 8 10 11 15 15 29 48 28 24 29 25 31 37 38 38 40 39 55 90 100 100 100 100
98 85 77 56 57 62 61 72 80 68 73 88 90 79 76 68 32 26 13 9 7 9 12 19 22 19 28 44 41 19 26 31 28 21 20 25 30 34 37 40 90 100 100 100
99 96 91 63 58 79 99 94 94 100 99 94 86 78 46 33 38 20 10 8 10 14 16 28 24 28 37 38 59 26 18 23 37 28 16 14 14 22 31 30 37 66 51 98
100 98 62 48 70 100 98 78 99 100 97 90 67 39 28 26 22 16 10 11 16 16 16 32 32 43 44 51 56 58 24 17 19 37 26 16 13 11 12 15 20 28 28 28
95 71 56 62 75 89 91 95 90 80 68 44 24 22 22 24 19 9 9 14 19 20 22 33 47 44 48 57 60 58 61 36 18 20 32 22 14 12 10 9 8 11 21 23
94 79 64 71 92 90 92 86 80 69 43 19 12 10 11 10 8 9 12 19 29 43 48 57 68 74 70 63 60 56 62 59 48 25 22 26 18 12 10 8 7 7 8 10
100 78 71 75 80 82 88 90 45 10 12 11 11 8 7 8 10 13 17 22 40 58 65 67 56 58 71 76 75 74 68 66 60 53 32 28 27 19 14 11 7 6 6 5
80 73 81 83 80 76 53 11 16 16 7 7 8 9 10 12 14 16 22 28 33 45 52 72 75 72 69 67 58 50 43 41 46 50 47 41 29 27 25 19 11 8 7 7
68 90 94 81 62 25 12 9 7 8 10 14 16 16 15 14 13 15 20 26 30 36 66 96 95 96 90 77 66 59 54 49 44 38 37 38 36 32 25 26 26 12 9 8
75 77 66 40 23 8 8 9 13 17 19 20 20 19 16 12 16 23 27 38 56 76 84 79 74 67 58 48 42 37 34 31 28 26 25 26 32 36 35 29 24 26 21 10
77 63 25 7 12 29 14 18 20 22 22 22 17 11 11 22 32 44 58 60 60 61 66 70 65 49 29 30 32 32 31 30 29 28 27 22 19 17 18 26 32 27 24 26
61 16 9 35 21 18 21 23 23 22 19 10 9 12 27 42 46 44 40 38 38 40 35 28 28 30 25 19 16 16 15 14 14 14 14 15 18 26 26 19 15 18 28 25
10 16 30 19 23 25 25 23 21 12 8 9 11 22 32 34 44 44 42 35 26 28 30 26 19 17 17 17 17 16 15 15 16 13 10 10 12 13 14 17 26 26 19 17
36 24 23 26 28 27 24 20 9 7 9 11 13 22 33 32 28 31 29 36 34 20 18 18 18 19 20 19 17 17 18 19 15 10 8 8 8 8 8 10 13 14 20 32
21 27 30 32 29 26 21 10 8 10 11 13 15 19 25 26 28 34 29 19 19 19 20 21 22 22 22 22 21 20 21 19 12 9 10 12 11 10 10 9 8 9 12 14
31 34 36 32 27 24 13 8 12 13 14 16 18 21 27 34 30 18 19 20 20 22 23 25 24 25 24 24 23 23 23 16 10 11 13 13 13 13 12 12 11 10 9 11
40 40 37 30 27 19 8 9 17 20 21 22 24 28 34 22 18 21 21 22 25 28 28 30 31 30 28 27 26 26 22 13 11 13 14 15 16 16 15 14 13 12 11 10
44 41 34 31 26 11 8 15 21 24 30 30 32 34 17 20 22 23 25 28 31 33 34 37 36 37 34 31 29 28 22 12 11 14 16 17 19 19 19 18 16 15 13 12
46 39 34 32 22 9 10 20 29 38 44 46 40 18 18 24 24 27 32 34 35 37 43 48 45 41 38 35 32 30 24 12 12 14 16 18 20 21 24 26 23 22 21 16
43 40 37 33 18 9 13 24 37 49 53 44 21 16 20 26 26 31 38 41 42 48 59 62 54 47 44 40 36 33 27 14 11 14 16 19 22 24 28 33 28 29 30 25
46 43 40 34 19 10 12 23 40 48 52 41 20 18 22 29 29 32 41 48 51 59 68 71 60 53 49 45 41 37 32 15 11 15 16 20 23 26 27 36 34 31 32 34
49 46 45 38 24 13 12 18 35 48 56 49 26 20 21 33 34 34 39 47 58 67 77 76 64 61 57 52 47 42 38 18 12 16 17 20 25 26 28 30 39 36 33 35
52 52 51 45 30 16 13 17 29 43 58 61 35 23 24 38 42 41 44 52 66 80 88 78 68 70 65 59 53 49 44 21 13 17 19 19 25 29 30 32 33 42 39 35
57 56 56 51 37 18 14 18 34 46 65 70 46 27 26 36 50 54 62 78 93 97 92 82 78 78 72 67 62 57 50 25 14 16 21 21 23 29 34 35 34 35 40 44
61 62 62 57 37 19 16 24 39 60 78 75 49 30 29 31 41 66 79 99 100 97 94 88 83 82 76 74 72 67 55 26 15 18 22 25 25 30 35 37 38 36 36 37

GFSNGP_500_rhum_162.txt.gz
RH
99 96 100 99 99 100 83 74 62 52 47 47 46 47 57 65 73 79 83 80 72 70 57 19 8 5 6 5 5 6 11 28 28 17 25 29 34 36 34 33 40 56 99 97
100 100 100 100 100 93 91 78 55 56 45 54 61 60 59 58 69 82 88 79 74 42 25 11 7 5 6 6 8 6 16 25 39 19 15 27 25 19 20 23 30 33 74 100
100 99 100 99 76 92 77 59 60 51 54 56 57 62 78 73 71 84 93 80 45 32 22 10 7 6 7 8 10 10 19 19 35 38 16 15 26 24 14 13 12 26 26 85
100 100 99 81 85 79 60 62 66 63 69 78 84 83 72 76 96 98 85 43 40 36 19 10 8 7 8 10 16 18 28 29 31 46 41 17 15 24 26 15 12 10 12 21
100 100 100 87 61 62 63 67 67 72 89 86 66 58 70 92 94 81 41 34 28 23 14 9 8 9 11 14 20 28 32 35 47 58 58 55 24 16 23 25 14 11 8 8
100 99 84 75 67 66 63 50 72 80 68 51 58 73 77 76 51 29 23 19 17 13 9 9 10 11 21 27 37 53 59 52 47 45 48 53 53 38 17 23 20 11 8 6
100 98 80 87 66 79 69 83 63 67 59 68 80 77 70 39 17 12 11 9 9 10 10 11 13 22 45 62 61 56 68 78 78 72 64 56 60 57 40 24 25 18 13 10
100 96 87 87 88 90 84 71 70 65 63 70 81 44 19 24 11 8 9 11 13 13 13 14 17 30 51 76 77 79 77 72 64 56 45 41 46 47 53 49 32 29 22 16
100 100 98 76 86 85 87 74 71 74 68 73 28 51 23 7 10 15 15 16 16 14 13 16 28 36 51 93 82 90 88 73 63 59 54 51 48 49 45 42 44 38 28 27
83 74 84 100 97 85 81 80 81 72 32 34 26 8 12 17 18 19 20 17 11 13 20 25 32 41 57 69 56 47 42 38 35 30 27 25 22 22 23 29 37 41 38 30
80 90 93 84 78 73 80 81 70 24 18 10 12 18 20 21 21 17 10 11 19 23 28 38 46 52 54 48 38 29 26 24 21 19 18 17 17 18 18 18 17 18 26 36
100 84 70 74 71 70 68 49 14 20 21 17 21 22 21 17 10 8 14 22 32 36 38 38 36 28 24 24 21 17 17 17 16 15 14 14 14 14 13 12 13 17 17 17
77 74 68 63 72 53 16 11 30 20 21 23 22 19 12 8 9 14 20 27 32 31 27 21 24 25 18 17 17 19 19 19 18 17 16 16 15 12 9 8 7 10 12 17
68 63 75 68 27 10 28 30 20 24 25 21 17 8 8 9 12 16 21 26 26 24 29 27 20 18 19 19 20 20 20 19 18 18 18 17 12 7 6 7 8 8 7 10
66 74 55 16 18 33 23 25 27 26 21 14 7 8 10 11 14 18 22 23 26 30 20 19 19 19 19 20 22 22 21 23 23 21 21 15 8 7 9 10 11 11 10 9
71 33 13 47 33 24 29 30 26 22 14 7 8 10 12 13 16 20 23 28 26 18 20 21 22 22 24 28 28 27 28 27 27 24 23 14 7 8 11 13 13 12 11 11
14 36 50 24 29 33 32 27 24 16 7 8 11 12 14 15 17 24 30 20 20 21 22 24 25 26 30 34 35 35 35 31 30 27 26 15 8 9 11 13 15 15 14 13
54 30 27 34 37 34 29 26 18 8 7 12 16 16 17 19 22 28 20 20 22 24 26 27 29 32 39 48 45 43 41 36 34 30 29 17 9 10 12 14 16 17 17 15
24 34 40 40 37 32 28 25 13 7 9 14 19 24 25 25 31 21 19 23 24 29 32 32 36 46 53 56 54 50 48 41 38 35 33 20 10 11 13 15 18 19 22 23
42 44 43 39 35 32 30 22 9 7 13 21 30 37 39 42 28 17 23 24 26 33 37 41 47 53 59 64 61 57 55 47 43 39 36 22 11 12 14 16 20 21 29 28
48 46 41 38 36 34 32 19 10 7 15 26 39 49 47 28 17 18 25 26 28 34 40 46 52 57 70 73 65 64 59 52 47 45 42 24 13 13 16 17 21 23 30 34
46 42 41 41 39 38 35 23 12 9 12 26 38 48 51 33 20 19 26 32 34 35 39 43 52 72 86 80 71 67 62 56 54 51 49 27 13 15 18 19 22 25 26 36
44 42 42 42 42 41 40 32 20 12 10 17 29 46 59 54 29 22 23 34 42 42 44 51 75 93 93 85 73 70 68 64 63 59 56 30 14 16 20 22 23 28 29 30
48 48 45 44 45 45 43 41 30 17 13 17 30 40 61 70 48 28 27 34 48 55 60 69 94 99 95 86 78 76 75 72 70 68 61 29 14 18 20 25 25 28 31 31
54 50 47 46 49 50 51 50 41 23 15 20 33 47 75 76 54 33 30 31 38 52 69 97 100 100 94 89 85 83 83 79 77 75 62 25 15 19 22 25 29 29 31 34
61 58 55 53 54 56 58 58 52 29 18 19 33 55 81 85 58 35 35 42 54 73 98 100 100 98 94 93 92 87 86 84 83 81 53 20 16 19 22 23 27 32 31 31
69 65 63 62 62 62 62 64 53 26 19 23 35 52 84 100 86 49 38 51 75 100 100 100 100 98 96 96 94 88 87 88 86 78 34 18 17 20 22 23 25 29 32 32

GFSNGP_500_rhum_168.txt.gz
RH
86 94 100 86 86 94 96 94 100 73 100 96 100 100 99 94 95 91 89 73 61 58 61 64 65 62 73 72 75 49 23 10 7 11 13 13 14 14 13 11 11 16 23 29
98 98 100 100 95 80 100 100 98 88 92 100 100 100 98 95 93 100 92 77 67 65 66 62 63 77 77 65 34 16 8 9 13 15 16 16 14 16 25 39 56 66 62 51
97 95 100 99 52 96 100 97 96 98 95 100 96 99 100 99 100 89 84 70 61 63 60 70 75 72 53 26 10 8 12 16 18 17 12 14 42 46 66 68 67 66 62 57
100 100 100 78 78 92 100 100 99 98 100 98 98 89 100 93 82 83 67 64 57 61 63 69 71 51 15 9 10 15 18 18 10 9 14 27 36 34 42 54 58 59 57 54
100 99 100 89 93 86 100 93 97 85 87 94 99 100 85 76 79 75 70 58 56 58 66 64 37 19 9 13 18 19 13 8 9 12 16 20 23 23 23 24 25 28 31 33
100 100 97 84 89 100 100 78 72 96 100 100 97 85 78 83 78 76 64 60 60 60 42 37 24 10 17 20 17 9 8 9 14 18 21 20 14 13 14 14 14 14 14 13
86 98 93 95 99 96 99 77 89 85 75 87 74 76 78 83 81 72 66 62 55 44 41 11 14 19 20 12 8 8 12 16 20 20 14 13 14 14 14 15 17 17 16 14
20 36 62 63 56 62 87 95 91 74 86 96 91 88 76 76 76 71 72 52 44 22 11 18 21 18 9 8 9 14 18 21 19 13 12 13 14 15 16 17 18 16 15 13
24 24 20 12 22 37 62 100 90 98 69 80 94 84 82 72 68 72 44 25 14 15 21 21 14 8 9 10 15 18 21 20 15 14 14 14 15 16 18 21 20 18 17 15
20 15 19 40 47 62 62 73 86 75 80 85 80 75 58 58 64 40 14 17 20 22 19 10 8 10 12 15 18 22 20 18 15 15 16 16 17 19 23 24 22 21 19 17
89 49 40 39 46 90 100 98 64 73 71 80 67 53 53 54 21 20 24 22 22 16 8 8 10 12 16 19 23 20 20 17 16 17 21 22 22 24 28 28 26 24 22 19
100 100 100 100 100 81 99 81 81 83 74 56 53 55 34 21 30 23 24 22 14 7 8 9 11 15 20 24 20 20 20 19 20 24 27 31 33 33 32 32 30 28 25 21
100 100 99 94 88 96 100 100 86 64 56 63 37 17 28 32 25 26 20 11 7 8 9 11 14 20 24 20 21 21 22 25 28 33 39 42 42 40 40 39 35 31 28 25
100 100 100 100 100 100 97 80 70 66 50 21 19 34 28 28 25 20 9 7 8 10 12 16 19 24 21 22 23 25 27 30 37 42 45 53 50 48 46 42 37 33 34 31
100 100 100 100 100 92 83 77 64 33 17 24 29 28 30 24 18 8 7 9 11 13 15 18 21 25 20 23 25 29 32 36 41 40 46 63 57 52 51 47 40 35 37 35
100 100 98 86 90 86 76 61 20 21 29 29 33 29 24 18 9 7 9 13 15 16 17 20 28 27 21 24 26 33 38 43 44 38 55 72 59 58 54 49 42 42 40 34
100 100 100 99 84 67 23 22 30 30 44 37 28 26 22 11 7 9 12 18 22 25 27 28 35 26 21 25 28 32 36 40 41 43 72 72 66 62 55 50 47 46 42 29
100 100 92 61 19 21 36 46 46 40 33 30 29 24 12 8 9 10 14 18 24 32 37 38 28 20 22 29 32 36 40 44 53 65 84 76 68 61 56 53 51 49 40 19
99 79 28 21 53 54 43 41 38 34 33 32 30 22 14 11 10 10 13 20 30 40 38 28 21 20 22 29 36 45 55 63 72 90 87 74 69 65 60 57 56 51 34 15
36 15 57 56 35 43 43 38 37 36 35 33 32 30 25 20 16 13 11 13 22 35 53 53 40 29 27 29 34 40 53 72 91 92 83 80 75 71 64 62 60 50 26 14
55 62 33 45 47 43 40 38 37 36 36 36 37 36 36 34 29 22 15 14 22 32 53 64 59 46 36 34 36 48 71 91 94 91 87 86 81 76 71 69 65 48 23 15
32 45 51 50 45 42 40 39 39 40 40 41 41 41 42 43 40 32 23 19 20 39 62 73 70 55 45 42 51 62 80 89 91 89 88 88 82 80 76 75 70 42 21 18
55 55 50 47 44 43 43 43 43 44 46 47 48 51 53 53 53 45 29 22 26 43 65 87 88 81 70 63 63 73 78 84 90 90 92 90 86 83 79 82 74 36 22 21
54 51 49 48 48 48 48 48 47 48 49 51 54 58 59 62 61 50 29 26 32 46 68 87 95 93 91 84 83 87 92 94 95 95 97 92 90 82 86 87 74 34 26 24
54 55 56 58 58 57 56 54 52 52 54 58 61 62 65 71 66 48 28 30 42 55 73 86 94 99 100 100 99 100 100 100 98 100 97 94 88 91 92 89 68 34 29 28
53 58 68 73 75 73 68 63 60 59 61 63 64 69 75 80 72 50 38 39 50 67 85 98 100 100 100 100 100 100 100 100 100 98 95 93 94 96 92 91 59 34 33 34
35 38 62 86 92 88 81 78 74 69 66 65 68 73 81 87 76 61 53 48 56 76 96 100 100 100 100 100 100 100 100 100 100 96 96 98 100 97 95 83 45 34 36 34

GFSNGP_500_rhum_171.txt.gz
RH
100 99 100 100 91 89 76 75 80 53 90 57 100 98 93 97 88 97 100 97 92 91 96 100 86 65 48 44 49 51 58 63 52 24 14 11 18 16 8 7 9 10 19 38
94 97 99 100 99 68 73 81 83 57 67 59 100 100 99 92 100 100 87 87 97 98 96 87 68 54 50 53 54 59 65 43 27 10 14 19 11 6 6 10 13 14 15 17
98 99 100 100 74 83 82 96 99 99 58 78 100 100 98 100 97 98 92 91 100 100 84 76 68 61 56 52 61 56 38 28 11 18 18 8 6 7 13 14 12 11 11 12
100 100 100 91 92 75 84 91 95 94 76 92 100 100 82 100 100 99 100 100 97 86 90 86 71 59 54 60 47 43 18 12 19 17 7 6 12 14 12 11 11 12 12 14
99 100 98 90 90 99 99 76 91 90 87 97 98 96 100 100 100 100 100 94 94 92 85 77 67 63 60 43 43 12 15 20 14 7 6 13 15 12 11 13 13 14 15 15
93 92 100 85 100 99 100 76 100 100 100 100 86 96 100 100 100 98 81 88 96 91 86 77 68 60 44 32 10 18 21 12 7 7 14 17 15 12 12 13 14 15 16 18
80 85 92 83 88 97 97 70 99 100 96 89 100 98 96 93 90 91 95 96 87 82 74 68 58 43 21 13 20 20 9 7 8 15 18 18 14 14 14 15 16 17 18 22
80 78 84 42 71 73 65 83 90 88 67 70 96 99 99 99 96 100 100 92 74 64 59 49 27 18 17 22 17 8 8 9 15 18 20 18 15 15 17 17 19 21 24 28
69 71 67 38 39 32 26 30 21 34 57 48 100 100 100 94 100 100 86 72 62 66 39 25 25 22 22 14 7 8 9 15 19 21 20 18 15 16 21 23 27 30 33 32
67 68 59 43 33 39 25 18 18 20 33 38 63 100 93 100 97 80 64 66 58 28 24 26 23 21 10 7 8 9 15 19 21 20 20 18 19 24 30 35 39 40 39 34
83 60 47 32 22 18 16 14 13 42 82 100 100 99 95 89 69 56 56 46 28 29 24 24 18 8 7 8 9 15 20 22 20 20 19 22 27 37 38 42 48 47 38 36
96 92 69 62 83 66 31 28 27 80 100 100 98 97 83 58 49 51 25 31 28 26 23 15 7 7 8 10 13 18 23 21 22 23 26 30 35 38 34 36 53 48 41 40
34 68 93 100 100 100 100 97 100 100 100 100 99 78 57 54 33 24 32 28 27 22 12 7 8 9 11 14 17 22 24 21 23 27 30 34 39 39 37 40 56 45 47 41
46 54 82 100 100 100 100 100 100 100 99 99 75 64 41 19 28 28 29 27 20 10 7 7 9 12 13 16 17 24 25 21 23 27 32 37 38 38 42 52 46 54 45 43
40 79 98 100 100 100 100 100 100 95 80 68 43 18 25 29 32 33 25 20 11 8 8 9 12 16 19 21 22 31 31 22 24 27 30 34 39 48 57 53 59 48 47 46
83 100 100 100 100 100 100 88 83 76 42 17 25 30 36 41 30 25 22 12 8 10 9 10 13 16 22 27 33 36 26 22 27 32 38 45 53 57 59 70 59 49 52 49
100 100 100 100 100 75 75 82 48 17 26 32 47 49 35 28 27 22 13 11 13 14 13 13 14 17 25 29 25 20 21 22 28 33 42 49 54 72 80 69 57 57 56 52
100 98 100 100 88 83 44 16 25 42 60 52 38 33 30 29 26 21 18 18 19 18 19 16 15 17 28 39 42 33 28 28 30 35 39 56 83 84 77 70 62 62 59 54
100 100 97 78 60 22 25 46 56 44 41 36 33 32 30 29 28 26 26 27 28 28 24 21 18 19 29 48 58 56 43 36 36 45 60 78 82 81 79 72 67 65 63 59
100 100 89 37 23 53 77 49 43 41 36 35 34 33 32 31 29 29 31 35 34 32 30 23 20 23 42 62 67 67 52 49 52 63 78 82 82 86 84 76 71 70 66 67
100 79 23 50 89 55 44 47 42 38 37 36 36 36 36 35 36 37 40 43 44 45 42 28 24 31 49 73 82 89 83 74 72 78 84 91 94 91 88 78 77 72 73 72
47 38 85 63 42 50 51 45 42 40 39 38 38 38 38 39 41 43 45 47 56 55 50 34 29 38 57 76 94 100 100 97 94 94 95 98 97 95 89 84 80 81 80 77
91 51 40 51 56 52 47 44 42 40 40 40 40 41 44 47 50 52 56 60 64 64 58 34 33 43 66 89 100 100 100 100 100 100 100 100 99 96 91 88 88 87 85 83
38 52 59 56 50 47 48 49 48 47 46 47 50 51 54 57 60 63 68 71 72 74 64 39 41 60 82 99 100 100 100 100 100 100 100 100 99 94 94 92 91 90 88 86
62 57 53 53 56 59 58 58 59 60 61 63 64 64 64 65 66 70 68 74 80 82 68 54 63 85 100 100 100 100 100 100 100 100 100 100 99 98 97 96 94 91 88 79
56 56 56 58 61 65 70 75 80 82 82 83 79 75 69 66 64 66 71 81 85 79 68 60 70 95 100 100 100 100 100 100 100 100 100 100 100 99 100 100 95 91 84 50
43 42 42 41 42 52 74 84 87 89 87 80 74 67 64 64 65 63 59 52 46 40 40 54 83 100 100 100 100 100 100 100 100 100 100 100 100 100 100 98 94 87 51 32